Preview of NWS' New Version of Forecast
This preview is not operational and should not be used for support decisions.

Regional Weather Roundup (RWR)

Issued by National Weather Service (NWS)

                            
000
ASUS43 KLSX 201357
RWRMO 

WEATHER SUMMARY FOR MISSOURI
NATIONAL WEATHER SERVICE SPRINGFIELD MO
900 AM CDT THU JUN 20 2019

NOTE: "FAIR" INDICATES FEW OR NO CLOUDS BELOW 12,000 FEET WITH NO
       SIGNIFICANT WEATHER AND/OR OBSTRUCTIONS TO VISIBILITY.
       CURRENT SKY AND/OR WEATHER CONDITIONS ARE NOT AVAILABLE FOR
       CHILLICOTHE AND FARMINGTON.

MOZ001>031-035>038-043-044-053-054-201500-
...NORTHERN AND WESTERN MISSOURI...
  
CITY           SKY/WX    TMP DP  RH WIND       PRES   REMARKS
KANSAS CTY INT PTSUNNY   72  65  78 W8        29.82R                  
KANSAS C DTWN  SUNNY     74  63  68 SW6       29.80R                  
LEE'S SUMMIT   SUNNY     72  63  73 W5        29.83R                  
ST JOSEPH      SUNNY     70  65  84 SW5       29.82R                  
CHILLICOTHE      N/A     67  64  90 CALM      29.82R                  
KIRKSVILLE     CLOUDY    67  63  87 N6        29.82R                  
     
$$
MOZ066>068-077>081-088>096-101>105-201500-
...SOUTHWEST MISSOURI...
  
CITY           SKY/WX    TMP DP  RH WIND       PRES   REMARKS
SPRINGFIELD    SUNNY     72  64  76 S3        29.82R                  
JOPLIN         SUNNY     75  67  76 VRB5      29.82R                  
BRANSON        SUNNY     73  66  78 CALM      29.84R                  
               
$$
MOZ032>034-039>042-045>050-055>058-069>072-201500-
...CENTRAL MISSOURI...  
  
CITY           SKY/WX    TMP DP  RH WIND       PRES   REMARKS
COLUMBIA       CLOUDY    68  62  81 W5        29.81R                  
ROLLA          PTSUNNY   67  62  84 W9        29.81R                  
SEDALIA        CLOUDY    63  63 100 CALM      29.83R FOG              
WARRENSBURG    CLOUDY    64  63  94 CALM      29.82R FOG              
               
$$
MOZ051-052-059>065-201500-
...EAST CENTRAL MISSOURI...
  
CITY           SKY/WX    TMP DP  RH WIND       PRES   REMARKS
ST LOUIS INTL  CLOUDY    68  60  75 NW9       29.77R                  
SPIRIT OF STL  CLOUDY    70  62  76 W9        29.77R                  
ST CHARLES       N/A    N/A N/A N/A MISG      29.76R                  
                   
$$
MOZ072>076-082>087-097>100-106>115-201500-
...SOUTH CENTRAL AND SOUTHEAST MISSOURI...
  
CITY           SKY/WX    TMP DP  RH WIND       PRES   REMARKS
CAPE GIRARDEAU CLOUDY    73  64  73 NW8       29.75R                  
POPLAR BLUFF   FAIR      74  68  81 NW8       29.76R                  
WEST PLAINS    SUNNY     70  64  81 W5        29.83R                  
                                       
$$